timestamp,wind_dir_avg,wind_spd_avg,wind_spd_max_dir,wind_spd_gust,battery_voltage,lat,long
2023-09-09 00:04:00+00:00,342.0,4.67,344.0,5.32,12.49,47.59359,-54.27349
2023-09-09 00:14:01+00:00,342.0,5.73,345.0,6.22,12.41,47.59359,-54.27349
2023-09-09 00:24:01+00:00,344.0,6.99,342.0,7.87,12.41,47.59359,-54.27349
2023-09-09 00:34:01+00:00,344.0,5.57,346.0,6.37,12.41,47.59359,-54.27349
2023-09-09 00:44:01+00:00,346.0,6.0,345.0,7.64,12.41,47.59359,-54.27349
2023-09-09 00:54:01+00:00,350.0,6.03,353.0,6.94,12.41,47.59359,-54.27349
2023-09-09 01:04:01+00:00,352.0,8.27,351.0,9.77,12.41,47.59359,-54.27349
2023-09-09 01:14:01+00:00,353.0,7.93,352.0,8.69,12.41,47.59359,-54.27349
2023-09-09 01:24:01+00:00,341.0,7.24,338.0,8.29,12.41,47.59359,-54.27349
2023-09-09 01:34:01+00:00,345.0,6.99,344.0,7.87,12.41,47.59359,-54.27349
2023-09-09 01:44:01+00:00,348.0,6.1,344.0,7.16,12.41,47.59359,-54.27349
2023-09-09 01:54:01+00:00,348.0,6.76,347.0,7.86,12.41,47.59359,-54.27349
2023-09-09 02:04:01+00:00,352.0,9.05,353.0,9.75,12.41,47.59359,-54.27349
2023-09-09 02:14:00+00:00,349.0,8.22,349.0,9.55,12.41,47.59359,-54.27349
2023-09-09 02:24:00+00:00,10.0,6.79,6.0,8.04,12.41,47.59359,-54.27349
2023-09-09 02:34:00+00:00,345.0,6.44,349.0,7.15,12.41,47.59359,-54.27349
2023-09-09 02:44:00+00:00,332.0,5.67,328.0,6.81,12.41,47.59359,-54.27349
2023-09-09 02:54:00+00:00,350.0,6.79,351.0,8.24,12.41,47.59359,-54.27349
2023-09-09 03:04:00+00:00,344.0,6.85,338.0,7.94,12.41,47.59359,-54.27349
2023-09-09 03:14:01+00:00,348.0,6.12,349.0,6.64,12.41,47.59359,-54.27349
2023-09-09 03:24:01+00:00,0.0,6.52,3.0,7.1,12.41,47.59359,-54.27349
2023-09-09 03:34:01+00:00,7.0,5.77,0.0,6.79,12.41,47.59359,-54.27349
2023-09-09 03:44:01+00:00,16.0,6.04,21.0,6.81,12.41,47.59359,-54.27349
2023-09-09 03:54:01+00:00,355.0,7.88,355.0,8.75,12.41,47.59359,-54.27349
2023-09-09 04:04:01+00:00,351.0,6.53,354.0,7.56,12.41,47.59359,-54.27349
2023-09-09 04:14:00+00:00,356.0,6.21,356.0,6.6,12.33,47.59359,-54.27349
2023-09-09 04:24:00+00:00,14.0,4.87,13.0,5.8,12.33,47.59359,-54.27349
2023-09-09 04:34:00+00:00,10.0,5.04,8.0,5.24,12.33,47.59359,-54.27349
2023-09-09 04:44:00+00:00,315.0,0.01,14.0,0.0,12.33,47.59359,-54.27349
2023-09-09 04:54:00+00:00,346.0,4.14,347.0,4.24,12.33,47.59359,-54.27349
2023-09-09 05:04:00+00:00,21.0,4.2,19.0,4.76,12.33,47.59359,-54.27349
2023-09-09 05:14:00+00:00,16.0,3.14,22.0,3.4,12.41,47.59359,-54.27349
2023-09-09 05:24:00+00:00,325.0,4.33,327.0,4.83,12.41,47.59359,-54.27349
2023-09-09 05:34:00+00:00,312.0,5.42,321.0,6.45,12.41,47.59359,-54.27349
2023-09-09 05:44:00+00:00,334.0,3.66,334.0,4.21,12.41,47.59359,-54.27349
2023-09-09 05:54:00+00:00,334.0,6.43,332.0,7.45,12.41,47.59359,-54.27349
2023-09-09 06:04:00+00:00,348.0,5.95,348.0,6.68,12.41,47.59359,-54.27349
2023-09-09 06:14:00+00:00,351.0,6.07,352.0,6.76,12.33,47.59359,-54.27349
2023-09-09 06:24:00+00:00,12.0,5.7,13.0,6.51,12.33,47.59359,-54.27349
2023-09-09 06:34:00+00:00,3.0,6.11,2.0,6.62,12.33,47.59359,-54.27349
2023-09-09 06:44:00+00:00,11.0,5.27,10.0,6.18,12.33,47.59359,-54.27349
2023-09-09 06:54:00+00:00,17.0,4.58,11.0,5.88,12.33,47.59359,-54.27349
2023-09-09 07:04:00+00:00,355.0,4.78,355.0,5.56,12.33,47.59359,-54.27349
2023-09-09 07:14:01+00:00,12.0,4.29,11.0,4.68,12.33,47.59359,-54.27349
2023-09-09 07:24:01+00:00,315.0,0.01,12.0,0.0,12.33,47.59359,-54.27349
2023-09-09 07:34:01+00:00,13.0,4.94,16.0,5.48,12.33,47.59359,-54.27349
2023-09-09 07:44:01+00:00,14.0,3.73,13.0,4.27,12.33,47.59359,-54.27349
2023-09-09 07:54:01+00:00,16.0,4.56,16.0,5.45,12.33,47.59359,-54.27349
2023-09-09 08:04:01+00:00,18.0,3.77,18.0,4.46,12.33,47.59359,-54.27349
2023-09-09 08:14:00+00:00,315.0,0.01,355.0,0.0,12.25,47.59359,-54.27349
2023-09-09 08:24:00+00:00,0.0,2.58,2.0,2.87,12.25,47.59359,-54.27349
2023-09-09 08:34:00+00:00,315.0,0.01,345.0,0.0,12.25,47.59359,-54.27349
2023-09-09 08:44:00+00:00,315.0,0.01,14.0,0.0,12.25,47.59359,-54.27349
2023-09-09 08:54:00+00:00,350.0,3.29,346.0,3.65,12.25,47.59359,-54.27349
2023-09-09 09:04:00+00:00,27.0,3.13,25.0,3.58,12.25,47.59359,-54.27349
2023-09-09 09:14:00+00:00,14.0,1.23,14.0,1.84,12.25,47.59359,-54.27349
2023-09-09 09:24:00+00:00,31.0,1.71,27.0,2.12,12.25,47.59359,-54.27349
2023-09-09 09:34:00+00:00,352.0,2.82,352.0,2.84,12.25,47.59359,-54.27349
2023-09-09 09:44:00+00:00,31.0,2.61,30.0,3.17,12.25,47.59359,-54.27349
2023-09-09 09:54:00+00:00,20.0,1.82,24.0,2.29,12.25,47.59359,-54.27349
2023-09-09 10:04:00+00:00,4.0,1.52,12.0,1.98,12.25,47.59359,-54.27349
2023-09-09 10:14:00+00:00,6.0,1.61,1.0,2.21,12.33,47.59359,-54.27349
2023-09-09 10:24:00+00:00,28.0,2.35,27.0,2.72,12.33,47.59359,-54.27349
2023-09-09 10:34:00+00:00,34.0,3.0,37.0,3.33,12.33,47.59359,-54.27349
2023-09-09 10:44:00+00:00,42.0,2.38,36.0,2.82,12.33,47.59359,-54.27349
2023-09-09 10:54:00+00:00,33.0,3.07,36.0,3.71,12.33,47.59359,-54.27349
2023-09-09 11:04:00+00:00,43.0,2.11,36.0,3.21,12.33,47.59359,-54.27349
2023-09-09 11:14:00+00:00,33.0,1.46,38.0,2.35,13.29,47.59359,-54.27349
2023-09-09 11:24:00+00:00,35.0,1.47,40.0,1.8,13.29,47.59359,-54.27349
2023-09-09 11:34:00+00:00,30.0,1.45,32.0,1.97,13.29,47.59359,-54.27349
2023-09-09 11:44:00+00:00,71.0,2.28,69.0,2.79,13.29,47.59359,-54.27349
2023-09-09 11:54:00+00:00,50.0,1.64,47.0,2.25,13.29,47.59359,-54.27349
2023-09-09 12:04:00+00:00,86.0,1.4,84.0,1.67,13.29,47.59359,-54.27349
2023-09-09 12:14:01+00:00,65.0,2.54,60.0,3.05,13.44,47.59359,-54.27349
2023-09-09 12:24:01+00:00,34.0,1.8,31.0,2.32,13.44,47.59359,-54.27349
2023-09-09 12:34:01+00:00,37.0,0.87,35.0,1.25,13.44,47.59359,-54.27349
2023-09-09 12:44:01+00:00,177.0,0.48,179.0,0.62,13.44,47.59359,-54.27349
2023-09-09 12:54:01+00:00,343.0,0.61,349.0,0.96,13.44,47.59359,-54.27349
2023-09-09 13:04:01+00:00,345.0,0.27,345.0,0.63,13.44,47.59359,-54.27349
2023-09-09 13:14:01+00:00,220.0,0.65,228.0,0.91,13.76,47.59359,-54.27349
2023-09-09 13:24:01+00:00,238.0,1.21,242.0,1.51,13.76,47.59359,-54.27349
2023-09-09 13:34:01+00:00,217.0,1.11,220.0,1.48,13.76,47.59359,-54.27349
2023-09-09 13:44:01+00:00,255.0,1.5,262.0,1.94,13.76,47.59359,-54.27349
2023-09-09 13:54:01+00:00,266.0,1.69,272.0,2.07,13.76,47.59359,-54.27349
2023-09-09 14:04:01+00:00,226.0,1.57,234.0,2.09,13.76,47.59359,-54.27349
2023-09-09 14:14:01+00:00,256.0,0.88,237.0,1.39,13.92,47.59359,-54.27349
2023-09-09 14:24:01+00:00,203.0,1.02,198.0,1.25,13.92,47.59359,-54.27349
2023-09-09 14:34:01+00:00,196.0,0.67,180.0,1.02,13.92,47.59359,-54.27349
2023-09-09 14:44:01+00:00,173.0,1.06,171.0,1.54,13.92,47.59359,-54.27349
2023-09-09 14:54:01+00:00,178.0,1.43,185.0,2.13,13.92,47.59359,-54.27349
2023-09-09 15:04:01+00:00,184.0,1.62,187.0,2.08,13.92,47.59359,-54.27349
2023-09-09 15:14:01+00:00,207.0,2.61,211.0,2.91,13.84,47.59359,-54.27349
2023-09-09 15:24:01+00:00,208.0,2.42,202.0,2.91,13.84,47.59359,-54.27349
2023-09-09 15:34:01+00:00,213.0,3.7,217.0,4.33,13.84,47.59359,-54.27349
2023-09-09 15:44:01+00:00,220.0,4.69,223.0,5.49,13.84,47.59359,-54.27349
2023-09-09 15:54:01+00:00,223.0,5.53,226.0,6.32,13.84,47.59359,-54.27349
2023-09-09 16:04:01+00:00,216.0,5.92,219.0,6.66,13.84,47.59359,-54.27349
2023-09-09 16:14:00+00:00,217.0,6.1,215.0,6.79,13.92,47.59359,-54.27349
2023-09-09 16:24:00+00:00,223.0,6.43,217.0,7.24,13.92,47.59359,-54.27349
2023-09-09 16:34:00+00:00,220.0,7.21,224.0,8.08,13.92,47.59359,-54.27349
2023-09-09 16:44:00+00:00,227.0,8.11,229.0,9.55,13.92,47.59359,-54.27349
2023-09-09 16:54:00+00:00,212.0,6.62,210.0,7.43,13.92,47.59359,-54.27349
2023-09-09 17:04:00+00:00,208.0,6.75,210.0,7.45,13.92,47.59359,-54.27349
2023-09-09 17:14:01+00:00,198.0,6.76,199.0,7.75,13.84,47.59359,-54.27349
2023-09-09 17:24:01+00:00,202.0,7.96,212.0,8.66,13.84,47.59359,-54.27349
2023-09-09 17:34:01+00:00,210.0,5.86,215.0,6.67,13.84,47.59359,-54.27349
2023-09-09 17:44:01+00:00,211.0,7.3,216.0,8.43,13.84,47.59359,-54.27349
2023-09-09 17:54:01+00:00,210.0,7.14,207.0,7.87,13.84,47.59359,-54.27349
2023-09-09 18:04:01+00:00,208.0,7.73,216.0,8.63,13.84,47.59359,-54.27349
2023-09-09 18:14:00+00:00,212.0,7.17,213.0,8.0,13.53,47.59359,-54.27349
2023-09-09 18:24:00+00:00,213.0,6.04,224.0,7.05,13.53,47.59359,-54.27349
2023-09-09 18:34:00+00:00,209.0,6.76,212.0,7.47,13.53,47.59359,-54.27349
2023-09-09 18:44:00+00:00,209.0,6.93,208.0,7.62,13.53,47.59359,-54.27349
2023-09-09 18:54:00+00:00,215.0,6.41,215.0,7.38,13.53,47.59359,-54.27349
2023-09-09 19:04:00+00:00,214.0,5.99,218.0,6.91,13.53,47.59359,-54.27349
2023-09-09 19:14:00+00:00,214.0,6.12,215.0,6.81,13.21,47.59359,-54.27349
2023-09-09 19:24:00+00:00,213.0,6.31,216.0,7.15,13.21,47.59359,-54.27349
2023-09-09 19:34:00+00:00,212.0,5.98,214.0,6.96,13.21,47.59359,-54.27349
2023-09-09 19:44:00+00:00,211.0,5.97,213.0,6.74,13.21,47.59359,-54.27349
2023-09-09 19:54:00+00:00,217.0,5.25,227.0,6.2,13.21,47.59359,-54.27349
2023-09-09 20:04:00+00:00,213.0,4.94,211.0,5.53,13.21,47.59359,-54.27349
2023-09-09 20:14:00+00:00,217.0,5.24,216.0,5.75,13.21,47.59359,-54.27349
2023-09-09 20:24:00+00:00,218.0,5.92,213.0,6.57,13.21,47.59359,-54.27349
2023-09-09 20:34:00+00:00,217.0,7.12,219.0,7.73,13.21,47.59359,-54.27349
2023-09-09 20:44:00+00:00,214.0,5.53,214.0,6.79,13.21,47.59359,-54.27349
2023-09-09 20:54:00+00:00,213.0,5.95,219.0,6.89,13.21,47.59359,-54.27349
2023-09-09 21:04:00+00:00,218.0,6.28,218.0,7.18,13.21,47.59359,-54.27349
2023-09-09 21:14:00+00:00,212.0,5.78,212.0,6.39,13.05,47.59359,-54.27349
2023-09-09 21:24:00+00:00,224.0,5.29,226.0,5.93,13.05,47.59359,-54.27349
2023-09-09 21:34:00+00:00,228.0,5.7,234.0,7.98,13.05,47.59359,-54.27349
2023-09-09 21:44:00+00:00,221.0,5.33,215.0,6.2,13.05,47.59359,-54.27349
2023-09-09 21:54:00+00:00,218.0,5.11,222.0,5.75,13.05,47.59359,-54.27349
2023-09-09 22:04:00+00:00,221.0,4.78,217.0,5.48,13.05,47.59359,-54.27349
2023-09-09 22:14:00+00:00,214.0,3.91,212.0,4.59,12.57,47.59359,-54.27349
2023-09-09 22:24:00+00:00,209.0,4.9,209.0,5.46,12.57,47.59359,-54.27349
2023-09-09 22:34:00+00:00,214.0,4.51,220.0,5.16,12.57,47.59359,-54.27349
2023-09-09 22:44:00+00:00,216.0,4.63,222.0,5.21,12.57,47.59359,-54.27349
2023-09-09 22:54:00+00:00,212.0,5.19,210.0,6.11,12.57,47.59359,-54.27349
2023-09-09 23:04:00+00:00,213.0,5.02,233.0,6.18,12.57,47.59359,-54.27349
2023-09-09 23:14:00+00:00,207.0,5.42,209.0,6.1,12.49,47.59359,-54.27349
2023-09-09 23:24:00+00:00,219.0,4.88,228.0,5.48,12.49,47.59359,-54.27349
2023-09-09 23:34:00+00:00,217.0,4.92,219.0,5.6,12.49,47.59359,-54.27349
2023-09-09 23:44:00+00:00,219.0,4.5,231.0,5.33,12.49,47.59359,-54.27349
2023-09-09 23:54:00+00:00,222.0,4.04,236.0,5.26,12.49,47.59359,-54.27349
